Poplar Bluff, MO

8:55 AM CDT on September 18, 2019 (GMT -0500)
Poplar Bluff Municipal

Weather History for KPOF - May, 2019

Change the Weather History Date:

Wednesday, May 8, 2019

  Actual Average Record
Temperature  
Mean Temperature 74 °F -  
Max Temperature 82 °F 76 °F 90 °F (1952)
Min Temperature 66 °F 55 °F 39 °F (1928)
Cooling Degree Days 9    
Growing Degree Days 24 (Base 50)    
Moisture  
Dew Point 66 °F    
Average Humidity 84    
Maximum Humidity 100    
Minimum Humidity 54    
Precipitation  
Precipitation 1.43 in - - ()
Sea Level Pressure  
Sea Level Pressure 29.81 in    
Wind  
Wind Speed 8 mph (South)    
Max Wind Speed 16 mph    
Max Gust Speed 30 mph    
Visibility 7 miles    
Events Rain    
Averages and records for this station are not official NWS values.
T = Trace of Precipitation, MM = Missing Value Source: NWS Daily Summary

Daily Weather History Graph

Daily Weather History Graph

Search for Another Location

Airport or City:

Astronomy

May. 08, 2019 Rise Set
Actual Time 6:00 AM CDT 7:55 PM CDT
Civil Twilight 5:31 AM CDT 8:24 PM CDT
Nautical Twilight 4:57 AM CDT 8:58 PM CDT
Astronomical Twilight 4:20 AM CDT 9:35 PM CDT
Moon 8:59 AM CDT (5/8) 11:53 PM CDT (5/8)
Length of Visible Light 14h 52m
Length of Day
13h 55m
Waxing Crescent, 16% of the Moon is Illuminated
May 8
Waxing Crescent
May 11
First Quarter
May 18
Full
May 26
Last Quarter
Jun 3
New

Hourly Weather History & Observations

Time (CDT) Temp. Heat Index Dew Point Humidity Pressure Visibility Wind Dir Wind Speed Gust Speed Precip Events Conditions
12:53 AM 70.0 °F - 64.0 °F 81% 29.95 in 10.0 mi ESE 4.6 mph - N/A   Clear
1:53 AM 70.0 °F - 64.9 °F 84% 29.95 in 10.0 mi SSE 4.6 mph - N/A   Clear
2:53 AM 69.1 °F - 64.9 °F 87% 29.93 in 10.0 mi SE 4.6 mph - N/A   Clear
3:53 AM 68.0 °F - 64.0 °F 87% 29.92 in 10.0 mi SE 4.6 mph - N/A   Clear
4:53 AM 66.9 °F - 64.0 °F 90% 29.91 in 10.0 mi SE 6.9 mph - N/A   Clear
5:53 AM 66.9 °F - 63.0 °F 87% 29.91 in 10.0 mi SE 6.9 mph - N/A   Clear
6:53 AM 66.9 °F - 63.0 °F 87% 29.91 in 10.0 mi SSE 5.8 mph - N/A   Clear
7:53 AM 69.1 °F - 64.0 °F 84% 29.90 in 10.0 mi SSE 11.5 mph - N/A   Clear
8:53 AM 72.0 °F - 64.0 °F 76% 29.91 in 10.0 mi SSE 13.8 mph - N/A   Clear
9:53 AM 75.0 °F - 64.9 °F 71% 29.89 in 10.0 mi SSE 15.0 mph 21.9 mph N/A   Clear
10:53 AM 78.1 °F - 66.9 °F 68% 29.88 in 10.0 mi SSE 13.8 mph 23.0 mph N/A   Clear
11:53 AM 80.1 °F 82.3 °F 66.9 °F 64% 29.86 in 10.0 mi South 9.2 mph - N/A   Clear
12:53 PM 80.1 °F 81.9 °F 64.9 °F 60% 29.84 in 10.0 mi SSW 16.1 mph 25.3 mph N/A   Clear
1:53 PM 82.0 °F 83.8 °F 64.9 °F 56% 29.81 in 10.0 mi SSW 16.1 mph 23.0 mph N/A   Clear
2:53 PM 80.1 °F 81.9 °F 64.9 °F 60% 29.81 in 10.0 mi South 12.7 mph - N/A   Clear
3:53 PM 80.1 °F 81.5 °F 63.0 °F 56% 29.79 in 10.0 mi SSW 13.8 mph - N/A   Clear
4:53 PM 79.0 °F - 61.0 °F 54% 29.77 in 10.0 mi SSW 11.5 mph - N/A   Partly Cloudy
5:53 PM 77.0 °F - 64.0 °F 64% 29.75 in 10.0 mi SW 5.8 mph - N/A   Mostly Cloudy
6:53 PM 75.0 °F - 64.9 °F 71% 29.76 in 10.0 mi SSE 9.2 mph - N/A   Mostly Cloudy
7:02 PM 73.0 °F - 66.9 °F 81% 29.76 in 1.8 mi SSW 3.5 mph - 0.04 in Rain Rain
7:53 PM 69.1 °F - 66.9 °F 93% 29.76 in 6.0 mi SW 8.1 mph - 0.09 in Rain Light Rain
8:07 PM 68.0 °F - 66.9 °F 96% 29.78 in 2.0 mi South 10.4 mph 20.7 mph 0.06 in Rain Rain
8:16 PM 68.0 °F - 68.0 °F 100% 29.78 in 1.8 mi SW 16.1 mph 29.9 mph 0.16 in Rain Heavy Rain
8:22 PM 68.0 °F - 68.0 °F 100% 29.78 in 2.0 mi SW 16.1 mph 26.5 mph 0.22 in Rain Rain
8:34 PM 69.1 °F - 68.0 °F 96% 29.78 in 1.8 mi SSW 10.4 mph 27.6 mph 0.33 in Rain Heavy Rain
8:53 PM 68.0 °F - 68.0 °F 100% 29.77 in 1.8 mi SSE 11.5 mph - 0.59 in Rain Heavy Rain
9:02 PM 68.0 °F - 68.0 °F 100% 29.76 in 1.2 mi WSW 9.2 mph 21.9 mph 0.18 in Rain Heavy Rain
9:19 PM 68.0 °F - 66.9 °F 96% 29.75 in 1.2 mi West 8.1 mph - 0.40 in Rain Heavy Rain
9:34 PM 66.9 °F - 66.9 °F 100% 29.75 in 2.5 mi Calm Calm - 0.49 in Rain Rain
9:41 PM 66.9 °F - 66.9 °F 100% 29.73 in 4.0 mi East 5.8 mph - 0.51 in Rain Rain
9:53 PM 66.9 °F - 66.9 °F 100% 29.72 in 3.0 mi ESE 8.1 mph - 0.56 in Rain Rain
10:00 PM 66.9 °F - 66.9 °F 100% 29.72 in 2.0 mi ESE 11.5 mph - 0.08 in Rain Heavy Rain
10:15 PM 66.9 °F - 66.9 °F 100% 29.69 in 4.0 mi ESE 10.4 mph - 0.15 in Rain Light Rain
10:53 PM 66.9 °F - 66.9 °F 100% 29.71 in 8.0 mi Calm Calm - 0.17 in Rain Light Rain
11:05 PM 68.0 °F - 66.9 °F 96% 29.73 in 9.0 mi South 4.6 mph - 0.01 in Rain Light Rain
11:53 PM 70.0 °F - 68.0 °F 93% 29.73 in 10.0 mi South 9.2 mph - 0.02 in   Overcast